Location: East Rockaway
(40.6420°N, 73.6696°W)
Time: 13:24:23
(UTC+00:00)

Daily predictions for brighter satellites

Satellite Brightness Start Highest point End
(mag) Time Altitude Azimuth Time Altitude Azimuth Time Altitude Azimuth
Cosmos 44 Rocket 4.3 22:31:17 10° S 22:35:20 27° ESE 22:39:20 10° NE
DELTA 2 R/B(2) 3.6 22:34:40 10° W 22:37:12 67° S 22:39:05 10° E
Meteor 1-21 Rocket 4.4 22:32:31 10° SSW 22:38:08 81° W 22:43:54 10° N
Cosmos 1703 3.5 22:35:47 10° SSE 22:39:36 49° E 22:43:27 10° NNE
FengYun 1-2 T 4.4 22:36:01 10° SE 22:41:28 52° ENE 22:46:56 10° N
Cosmos 1825 Rocket 3.9 22:40:32 10° SSW 22:44:51 70° W 22:49:11 10° N
Cosmos 1339 Rocket 4.5 22:40:18 10° N 22:46:22 62° E 22:52:28 10° SSE
Cosmos 1455 2.1 22:45:28 10° N 22:49:15 72° E 22:52:59 10° SSE
Cosmos 1356 Rocket 4.0 22:47:28 10° N 22:51:13 34° ENE 22:54:59 10° SE
Cosmos 2218 Rocket 4.0 22:46:19 10° S 22:52:37 75° E 22:59:01 10° N
Cosmos 2251 Rocket 3.6 22:47:54 10° NNW 22:53:10 60° ENE 22:58:26 10° SSE
ISS -1.6 22:53:01 10° WNW 22:55:27 18° NNW 22:57:52 10° NNE
Cosmos 2221 3.6 22:52:34 10° NNE 22:55:55 22° ENE 22:59:15 10° SE
Envisat 3.3 22:54:45 10° S 22:59:48 73° WSW 23:04:54 10° NNW
Cosmos 1959 Rocket 4.4 22:54:46 10° S 23:00:55 84° E 23:07:04 10° N
Cosmos-2242 3.6 22:58:15 10° NNW 23:02:30 61° W 23:06:41 10° S
CSL-04 Rocket 4.0 22:59:22 10° SE 23:04:35 45° ENE 23:09:51 10° N
CZ-4 R/B 4.4 23:01:00 10° SSE 23:05:03 64° ENE 23:09:09 10° N
CZ-2D R/B 4.0 23:02:49 10° SE 23:06:12 31° ENE 23:09:37 10° N
Okean-O 3.1 23:05:16 10° S 23:09:40 66° WSW 23:14:05 10° NNW
Cosmos 2237 Rocket 4.5 23:06:28 10° NW 23:11:09 28° WSW 23:15:50 10° SSW
Cosmos 1939 Rocket 3.3 23:08:44 10° SE 23:12:22 37° ENE 23:16:04 10° N
SKYMED 2 3.7 23:09:33 10° N 23:13:55 77° WNW 23:18:14 10° SSW
Cosmos 2366 rocket 4.3 23:13:00 10° SSW 23:19:13 74° W 23:25:31 10° N
Cosmos 407 Rocket 4.3 23:18:54 10° N 23:23:29 29° ENE 23:25:48 21° ESE
STARLINK-67 3.4 23:21:28 10° SSW 23:23:37 29° SE 23:23:37 29° SE
YAOGAN 6 4.0 23:21:27 10° S 23:24:56 42° W 23:28:25 10° NNW
YAOGAN 1 2.4 23:20:54 10° SSE 23:25:12 74° ENE 23:29:32 10° N
ATLAS 3B R/B 4.4 23:22:58 10° SE 23:23:53 11° ESE 23:23:53 11° ESE
Cosmos 2058 3.8 23:25:10 10° SSE 23:28:15 27° E 23:28:15 27° E
DELTA 2 R/B (1) 4.1 23:25:30 10° W 23:30:57 57° SSW 23:35:10 17° SE
NOSS 3-2 (C) 4.3 23:26:53 10° SSE 23:31:19 24° ESE 23:32:01 24° E
USA 267 4.4 23:25:52 10° NE 23:31:37 35° NNW 23:37:25 10° W
SL-16 R/B 3.3 23:32:18 10° NW 23:37:42 47° WSW 23:43:04 10° S
Fregat R/B Cluster 11 4.1 23:36:57 10° SSW 23:39:44 72° ESE 23:47:32 10° NE
Cosmos 2227 4.1 23:34:37 10° SSW 23:40:20 74° ESE 23:45:05 15° NNE
CENTAUR R/B 3.5 23:37:07 10° SSE 23:40:48 22° ESE 23:40:48 22° ESE
Ariane Rocket 3.3 23:38:29 10° SE 23:43:16 43° ENE 23:48:03 10° N
Cosmos 1624 Rocket 4.1 23:42:20 10° S 23:47:26 50° ESE 23:49:24 33° NE
Haruka 4.2 23:44:46 10° SW 23:47:46 26° SSE 23:49:26 22° SE
NOSS 3-2 (A) 3.4 23:42:41 10° SSW 23:48:09 54° ESE 23:50:40 32° ENE
Cosmos 1603 3.6 23:45:22 10° NNW 23:51:00 63° ENE 23:55:08 18° SE
Cosmos 1727 Rocket 4.5 23:46:23 10° NNW 23:52:27 61° W 23:58:30 10° S
Shenzhou-11 Module 3.0 23:50:06 10° WNW 23:51:57 38° WNW 23:51:57 38° WNW
Cosmos 2263 Rocket 2.0 23:47:44 10° SSW 23:53:15 72° ESE 23:56:24 27° NNE
CZ-4 R/B 3.0 23:50:53 10° SSW 23:54:39 36° W 23:58:31 10° NNW
